owner,sensor,date,latitude,longitude,air_temperature,qcFlag 
COMPS,ioos:station:USF.COMPS:FHP:1,2011-11-01T00:00:00Z,28.1530,-82.8010,22.0,1111122 
COMPS,ioos:station:USF.COMPS:FHP:1,2011-11-01T01:00:00Z,28.1530,-82.8010,22.0,1111122 
COMPS,ioos:station:USF.COMPS:FHP:1,2011-11-01T02:00:00Z,28.1530,-82.8010,21.7,1111122 
COMPS,ioos:station:USF.COMPS:FHP:1,2011-11-01T05:00:00Z,28.1530,-82.8010,19.4,1111122 
COMPS,ioos:station:USF.COMPS:FHP:1,2011-11-01T06:00:00Z,28.1530,-82.8010,18.6,1111122 
COMPS,ioos:station:USF.COMPS:FHP:1,2011-11-01T07:00:00Z,28.1530,-82.8010,17.8,1111122 
COMPS,ioos:station:USF.COMPS:FHP:1,2011-11-01T08:00:00Z,28.1530,-82.8010,17.4,1111122 
COMPS,ioos:station:USF.COMPS:FHP:1,2011-11-01T09:00:00Z,28.1530,-82.8010,16.6,1111122 
COMPS,ioos:station:USF.COMPS:FHP:1,2011-11-01T10:00:00Z,28.1530,-82.8010,16.4,1111122 
COMPS,ioos:station:USF.COMPS:FHP:1,2011-11-01T11:00:00Z,28.1530,-82.8010,16.3,1111122 
COMPS,ioos:station:USF.COMPS:FHP:1,2011-11-01T12:00:00Z,28.1530,-82.8010,16.0,1111122 
COMPS,ioos:station:USF.COMPS:FHP:1,2011-11-01T13:00:00Z,28.1530,-82.8010,16.6,1111122 
COMPS,ioos:station:USF.COMPS:FHP:1,2011-11-01T15:00:00Z,28.1530,-82.8010,19.2,1111122 
COMPS,ioos:station:USF.COMPS:FHP:1,2011-11-01T16:00:00Z,28.1530,-82.8010,20.5,1111122 
COMPS,ioos:station:USF.COMPS:FHP:1,2011-11-01T18:00:00Z,28.1530,-82.8010,22.7,1111122 
COMPS,ioos:station:USF.COMPS:FHP:1,2011-11-01T19:00:00Z,28.1530,-82.8010,23.4,1111122 
COMPS,ioos:station:USF.COMPS:FHP:1,2011-11-01T20:00:00Z,28.1530,-82.8010,23.9,1111122 
COMPS,ioos:station:USF.COMPS:FHP:1,2011-11-01T21:00:00Z,28.1530,-82.8010,23.6,1111122 
COMPS,ioos:station:USF.COMPS:FHP:1,2011-11-01T22:00:00Z,28.1530,-82.8010,23.1,1111122 
COMPS,ioos:station:USF.COMPS:FHP:1,2011-11-01T23:00:00Z,28.1530,-82.8010,22.0,1111122 
COMPS,ioos:station:USF.COMPS:FHP:1,2011-11-02T00:00:00Z,28.1530,-82.8010,20.8,1111122 
COMPS,ioos:station:USF.COMPS:FHP:1,2011-11-02T02:00:00Z,28.1530,-82.8010,18.7,1111122 
COMPS,ioos:station:USF.COMPS:FHP:1,2011-11-02T03:00:00Z,28.1530,-82.8010,18.1,1111122 
COMPS,ioos:station:USF.COMPS:FHP:1,2011-11-02T05:00:00Z,28.1530,-82.8010,17.5,1111122 
COMPS,ioos:station:USF.COMPS:FHP:1,2011-11-02T06:00:00Z,28.1530,-82.8010,17.3,1111122 
COMPS,ioos:station:USF.COMPS:FHP:1,2011-11-02T07:00:00Z,28.1530,-82.8010,16.7,1111122 
COMPS,ioos:station:USF.COMPS:FHP:1,2011-11-02T08:00:00Z,28.1530,-82.8010,16.4,1111122 
COMPS,ioos:station:USF.COMPS:FHP:1,2011-11-02T09:00:00Z,28.1530,-82.8010,16.0,1111122 
COMPS,ioos:station:USF.COMPS:FHP:1,2011-11-02T11:00:00Z,28.1530,-82.8010,15.2,1111122 
COMPS,ioos:station:USF.COMPS:FHP:1,2011-11-02T12:00:00Z,28.1530,-82.8010,15.2,1111122 
COMPS,ioos:station:USF.COMPS:FHP:1,2011-11-02T14:00:00Z,28.1530,-82.8010,18.6,1111122 
COMPS,ioos:station:USF.COMPS:FHP:1,2011-11-02T15:00:00Z,28.1530,-82.8010,21.3,1111122 
COMPS,ioos:station:USF.COMPS:FHP:1,2011-11-02T16:00:00Z,28.1530,-82.8010,22.9,1111122 
COMPS,ioos:station:USF.COMPS:FHP:1,2011-11-02T18:00:00Z,28.1530,-82.8010,25.0,1111122 
COMPS,ioos:station:USF.COMPS:FHP:1,2011-11-02T19:00:00Z,28.1530,-82.8010,25.6,1111122 
COMPS,ioos:station:USF.COMPS:FHP:1,2011-11-02T20:00:00Z,28.1530,-82.8010,25.2,1111122 
COMPS,ioos:station:USF.COMPS:FHP:1,2011-11-02T21:00:00Z,28.1530,-82.8010,26.0,1111122 
COMPS,ioos:station:USF.COMPS:FHP:1,2011-11-02T22:00:00Z,28.1530,-82.8010,25.5,1111122 
COMPS,ioos:station:USF.COMPS:FHP:1,2011-11-03T00:00:00Z,28.1530,-82.8010,22.5,1111122 
COMPS,ioos:station:USF.COMPS:FHP:1,2011-11-03T01:00:00Z,28.1530,-82.8010,22.1,1111122 
COMPS,ioos:station:USF.COMPS:FHP:1,2011-11-03T03:00:00Z,28.1530,-82.8010,21.1,1111122 
COMPS,ioos:station:USF.COMPS:FHP:1,2011-11-03T04:00:00Z,28.1530,-82.8010,20.0,1111122 
COMPS,ioos:station:USF.COMPS:FHP:1,2011-11-03T05:00:00Z,28.1530,-82.8010,19.3,1111122 
COMPS,ioos:station:USF.COMPS:FHP:1,2011-11-03T06:00:00Z,28.1530,-82.8010,18.6,1111122 
COMPS,ioos:station:USF.COMPS:FHP:1,2011-11-03T07:00:00Z,28.1530,-82.8010,18.3,1111122 
COMPS,ioos:station:USF.COMPS:FHP:1,2011-11-03T08:00:00Z,28.1530,-82.8010,17.9,1111122 
COMPS,ioos:station:USF.COMPS:FHP:1,2011-11-03T09:00:00Z,28.1530,-82.8010,17.8,1111122 
COMPS,ioos:station:USF.COMPS:FHP:1,2011-11-03T10:00:00Z,28.1530,-82.8010,17.6,1111122 
COMPS,ioos:station:USF.COMPS:FHP:1,2011-11-03T11:00:00Z,28.1530,-82.8010,17.5,1111122 
COMPS,ioos:station:USF.COMPS:FHP:1,2011-11-03T12:00:00Z,28.1530,-82.8010,17.4,1111122 
COMPS,ioos:station:USF.COMPS:FHP:1,2011-11-03T13:00:00Z,28.1530,-82.8010,18.3,1111122 
COMPS,ioos:station:USF.COMPS:FHP:1,2011-11-03T14:00:00Z,28.1530,-82.8010,19.6,1111122 
COMPS,ioos:station:USF.COMPS:FHP:1,2011-11-03T15:00:00Z,28.1530,-82.8010,21.6,1111122 
COMPS,ioos:station:USF.COMPS:FHP:1,2011-11-03T16:00:00Z,28.1530,-82.8010,21.6,1111122 
COMPS,ioos:station:USF.COMPS:FHP:1,2011-11-03T17:00:00Z,28.1530,-82.8010,21.8,1111122 
COMPS,ioos:station:USF.COMPS:FHP:1,2011-11-03T18:00:00Z,28.1530,-82.8010,23.2,1111122 
COMPS,ioos:station:USF.COMPS:FHP:1,2011-11-07T18:00:00Z,28.1530,-82.8010,23.9,1111122 
COMPS,ioos:station:USF.COMPS:FHP:1,2011-11-07T19:00:00Z,28.1530,-82.8010,21.9,1111122 
COMPS,ioos:station:USF.COMPS:FHP:1,2011-11-07T20:00:00Z,28.1530,-82.8010,24.9,1111122 
COMPS,ioos:station:USF.COMPS:FHP:1,2011-11-07T21:00:00Z,28.1530,-82.8010,21.7,1111122 
COMPS,ioos:station:USF.COMPS:FHP:1,2011-11-07T22:00:00Z,28.1530,-82.8010,21.6,1111122 
COMPS,ioos:station:USF.COMPS:FHP:1,2011-11-07T23:00:00Z,28.1530,-82.8010,21.4,1111122 
COMPS,ioos:station:USF.COMPS:FHP:1,2011-11-08T00:00:00Z,28.1530,-82.8010,21.4,1111122 
COMPS,ioos:station:USF.COMPS:FHP:1,2011-11-08T02:00:00Z,28.1530,-82.8010,21.5,1111122 
COMPS,ioos:station:USF.COMPS:FHP:1,2011-11-08T03:00:00Z,28.1530,-82.8010,20.7,1111122 
COMPS,ioos:station:USF.COMPS:FHP:1,2011-11-08T05:00:00Z,28.1530,-82.8010,19.4,1111122 
COMPS,ioos:station:USF.COMPS:FHP:1,2011-11-08T06:00:00Z,28.1530,-82.8010,19.0,1111122 
COMPS,ioos:station:USF.COMPS:FHP:1,2011-11-08T07:00:00Z,28.1530,-82.8010,18.7,1111122 
COMPS,ioos:station:USF.COMPS:FHP:1,2011-11-08T08:00:00Z,28.1530,-82.8010,18.2,1111122 
COMPS,ioos:station:USF.COMPS:FHP:1,2011-11-08T10:00:00Z,28.1530,-82.8010,17.8,1111122 
COMPS,ioos:station:USF.COMPS:FHP:1,2011-11-08T11:00:00Z,28.1530,-82.8010,18.0,1111122 
COMPS,ioos:station:USF.COMPS:FHP:1,2011-11-08T12:00:00Z,28.1530,-82.8010,17.9,1111122 
COMPS,ioos:station:USF.COMPS:FHP:1,2011-11-08T14:00:00Z,28.1530,-82.8010,18.9,1111122 
COMPS,ioos:station:USF.COMPS:FHP:1,2011-11-08T15:00:00Z,28.1530,-82.8010,20.0,1111122 
COMPS,ioos:station:USF.COMPS:FHP:1,2011-11-08T16:00:00Z,28.1530,-82.8010,20.0,1111122 
COMPS,ioos:station:USF.COMPS:FHP:1,2011-11-08T17:00:00Z,28.1530,-82.8010,20.5,1111122 
COMPS,ioos:station:USF.COMPS:FHP:1,2011-11-08T19:00:00Z,28.1530,-82.8010,21.0,1111122 
COMPS,ioos:station:USF.COMPS:FHP:1,2011-11-08T20:00:00Z,28.1530,-82.8010,21.5,1111122 
COMPS,ioos:station:USF.COMPS:FHP:1,2011-11-08T21:00:00Z,28.1530,-82.8010,21.6,1111122 
COMPS,ioos:station:USF.COMPS:FHP:1,2011-11-08T22:00:00Z,28.1530,-82.8010,21.8,1111122 
COMPS,ioos:station:USF.COMPS:FHP:1,2011-11-08T23:00:00Z,28.1530,-82.8010,21.9,1111122 
COMPS,ioos:station:USF.COMPS:FHP:1,2011-11-09T00:00:00Z,28.1530,-82.8010,21.6,1111122 
COMPS,ioos:station:USF.COMPS:FHP:1,2011-11-09T01:00:00Z,28.1530,-82.8010,21.2,1111122 
COMPS,ioos:station:USF.COMPS:FHP:1,2011-11-09T02:00:00Z,28.1530,-82.8010,21.1,1111122 
COMPS,ioos:station:USF.COMPS:FHP:1,2011-11-09T03:00:00Z,28.1530,-82.8010,20.9,1111122 
COMPS,ioos:station:USF.COMPS:FHP:1,2011-11-09T04:00:00Z,28.1530,-82.8010,20.0,1111122 
COMPS,ioos:station:USF.COMPS:FHP:1,2011-11-09T05:00:00Z,28.1530,-82.8010,19.6,1111122 
COMPS,ioos:station:USF.COMPS:FHP:1,2011-11-09T06:00:00Z,28.1530,-82.8010,18.4,1111122 
COMPS,ioos:station:USF.COMPS:FHP:1,2011-11-09T07:00:00Z,28.1530,-82.8010,18.3,1111122 
COMPS,ioos:station:USF.COMPS:FHP:1,2011-11-09T08:00:00Z,28.1530,-82.8010,18.3,1111122 
COMPS,ioos:station:USF.COMPS:FHP:1,2011-11-09T09:00:00Z,28.1530,-82.8010,18.2,1111122 
COMPS,ioos:station:USF.COMPS:FHP:1,2011-11-09T10:00:00Z,28.1530,-82.8010,18.6,1111122 
COMPS,ioos:station:USF.COMPS:FHP:1,2011-11-09T11:00:00Z,28.1530,-82.8010,18.3,1111122 
COMPS,ioos:station:USF.COMPS:FHP:1,2011-11-09T12:00:00Z,28.1530,-82.8010,18.1,1111122 
COMPS,ioos:station:USF.COMPS:FHP:1,2011-11-09T13:00:00Z,28.1530,-82.8010,18.5,1111122 
COMPS,ioos:station:USF.COMPS:FHP:1,2011-11-09T14:00:00Z,28.1530,-82.8010,20.1,1111122 
COMPS,ioos:station:USF.COMPS:FHP:1,2011-11-09T15:00:00Z,28.1530,-82.8010,21.7,1111122 
COMPS,ioos:station:USF.COMPS:FHP:1,2011-11-09T16:00:00Z,28.1530,-82.8010,21.1,1111122 
COMPS,ioos:station:USF.COMPS:FHP:1,2011-11-09T17:00:00Z,28.1530,-82.8010,21.7,1111122 
COMPS,ioos:station:USF.COMPS:FHP:1,2011-11-09T18:00:00Z,28.1530,-82.8010,21.6,1111122 
COMPS,ioos:station:USF.COMPS:FHP:1,2011-11-09T19:00:00Z,28.1530,-82.8010,22.1,1111122 
COMPS,ioos:station:USF.COMPS:FHP:1,2011-11-09T20:00:00Z,28.1530,-82.8010,22.1,1111122 
COMPS,ioos:station:USF.COMPS:FHP:1,2011-11-09T21:00:00Z,28.1530,-82.8010,22.4,1111122 
COMPS,ioos:station:USF.COMPS:FHP:1,2011-11-09T22:00:00Z,28.1530,-82.8010,22.5,1111122 
COMPS,ioos:station:USF.COMPS:FHP:1,2011-11-09T23:00:00Z,28.1530,-82.8010,22.2,1111122 
COMPS,ioos:station:USF.COMPS:FHP:1,2011-11-10T00:00:00Z,28.1530,-82.8010,22.0,1111122 
COMPS,ioos:station:USF.COMPS:FHP:1,2011-11-10T01:00:00Z,28.1530,-82.8010,21.9,1111122 
COMPS,ioos:station:USF.COMPS:FHP:1,2011-11-10T02:00:00Z,28.1530,-82.8010,21.7,1111122 
COMPS,ioos:station:USF.COMPS:FHP:1,2011-11-10T03:00:00Z,28.1530,-82.8010,21.4,1111122 
COMPS,ioos:station:USF.COMPS:FHP:1,2011-11-10T04:00:00Z,28.1530,-82.8010,21.3,1111122 
COMPS,ioos:station:USF.COMPS:FHP:1,2011-11-10T05:00:00Z,28.1530,-82.8010,21.0,1111122 
COMPS,ioos:station:USF.COMPS:FHP:1,2011-11-10T06:00:00Z,28.1530,-82.8010,20.7,1111122 
COMPS,ioos:station:USF.COMPS:FHP:1,2011-11-10T07:00:00Z,28.1530,-82.8010,19.6,1111122 
COMPS,ioos:station:USF.COMPS:FHP:1,2011-11-10T08:00:00Z,28.1530,-82.8010,18.2,1111122 
COMPS,ioos:station:USF.COMPS:FHP:1,2011-11-10T09:00:00Z,28.1530,-82.8010,17.8,1111122 
COMPS,ioos:station:USF.COMPS:FHP:1,2011-11-10T10:00:00Z,28.1530,-82.8010,17.5,1111122 
COMPS,ioos:station:USF.COMPS:FHP:1,2011-11-10T11:00:00Z,28.1530,-82.8010,17.0,1111122 
COMPS,ioos:station:USF.COMPS:FHP:1,2011-11-10T12:00:00Z,28.1530,-82.8010,17.2,1111122 
COMPS,ioos:station:USF.COMPS:FHP:1,2011-11-10T14:00:00Z,28.1530,-82.8010,20.4,1111122 
COMPS,ioos:station:USF.COMPS:FHP:1,2011-11-10T15:00:00Z,28.1530,-82.8010,21.2,1111122 
COMPS,ioos:station:USF.COMPS:FHP:1,2011-11-10T16:00:00Z,28.1530,-82.8010,20.9,1111122 
COMPS,ioos:station:USF.COMPS:FHP:1,2011-11-10T17:00:00Z,28.1530,-82.8010,21.1,1111122 
COMPS,ioos:station:USF.COMPS:FHP:1,2011-11-10T18:00:00Z,28.1530,-82.8010,21.4,1111122 
COMPS,ioos:station:USF.COMPS:FHP:1,2011-11-10T19:00:00Z,28.1530,-82.8010,22.5,1111122 
COMPS,ioos:station:USF.COMPS:FHP:1,2011-11-10T20:00:00Z,28.1530,-82.8010,22.8,1111122 
COMPS,ioos:station:USF.COMPS:FHP:1,2011-11-10T21:00:00Z,28.1530,-82.8010,22.5,1111122 
COMPS,ioos:station:USF.COMPS:FHP:1,2011-11-10T22:00:00Z,28.1530,-82.8010,20.2,1111122 
COMPS,ioos:station:USF.COMPS:FHP:1,2011-11-10T23:00:00Z,28.1530,-82.8010,19.6,1111122 
COMPS,ioos:station:USF.COMPS:FHP:1,2011-11-11T00:00:00Z,28.1530,-82.8010,20.3,1111122 
COMPS,ioos:station:USF.COMPS:FHP:1,2011-11-11T01:00:00Z,28.1530,-82.8010,19.8,1111122 
COMPS,ioos:station:USF.COMPS:FHP:1,2011-11-11T02:00:00Z,28.1530,-82.8010,19.8,1111122 
COMPS,ioos:station:USF.COMPS:FHP:1,2011-11-11T03:00:00Z,28.1530,-82.8010,19.5,1111122 
COMPS,ioos:station:USF.COMPS:FHP:1,2011-11-11T04:00:00Z,28.1530,-82.8010,18.4,1111122 
COMPS,ioos:station:USF.COMPS:FHP:1,2011-11-11T05:00:00Z,28.1530,-82.8010,17.5,1111122 
COMPS,ioos:station:USF.COMPS:FHP:1,2011-11-11T06:00:00Z,28.1530,-82.8010,16.3,1111122 
COMPS,ioos:station:USF.COMPS:FHP:1,2011-11-11T07:00:00Z,28.1530,-82.8010,15.6,1111122 
COMPS,ioos:station:USF.COMPS:FHP:1,2011-11-11T08:00:00Z,28.1530,-82.8010,15.1,1111122 
COMPS,ioos:station:USF.COMPS:FHP:1,2011-11-11T09:00:00Z,28.1530,-82.8010,14.2,1111122 
COMPS,ioos:station:USF.COMPS:FHP:1,2011-11-11T10:00:00Z,28.1530,-82.8010,13.6,1111122 
COMPS,ioos:station:USF.COMPS:FHP:1,2011-11-11T11:00:00Z,28.1530,-82.8010,12.7,1111122 
COMPS,ioos:station:USF.COMPS:FHP:1,2011-11-11T12:00:00Z,28.1530,-82.8010,12.0,1111122 
COMPS,ioos:station:USF.COMPS:FHP:1,2011-11-11T13:00:00Z,28.1530,-82.8010,11.7,1111122 
COMPS,ioos:station:USF.COMPS:FHP:1,2011-11-11T14:00:00Z,28.1530,-82.8010,11.6,1111122 
COMPS,ioos:station:USF.COMPS:FHP:1,2011-11-11T15:00:00Z,28.1530,-82.8010,11.7,1111122 
COMPS,ioos:station:USF.COMPS:FHP:1,2011-11-11T16:00:00Z,28.1530,-82.8010,11.8,1111122 
COMPS,ioos:station:USF.COMPS:FHP:1,2011-11-11T17:00:00Z,28.1530,-82.8010,12.8,1111122 
COMPS,ioos:station:USF.COMPS:FHP:1,2011-11-11T18:00:00Z,28.1530,-82.8010,14.0,1111122 
COMPS,ioos:station:USF.COMPS:FHP:1,2011-11-11T19:00:00Z,28.1530,-82.8010,14.9,1111122 
COMPS,ioos:station:USF.COMPS:FHP:1,2011-11-11T20:00:00Z,28.1530,-82.8010,15.1,1111122 
COMPS,ioos:station:USF.COMPS:FHP:1,2011-11-11T21:00:00Z,28.1530,-82.8010,16.0,1111122 
COMPS,ioos:station:USF.COMPS:FHP:1,2011-11-11T23:00:00Z,28.1530,-82.8010,16.4,1111122 
COMPS,ioos:station:USF.COMPS:FHP:1,2011-11-12T01:00:00Z,28.1530,-82.8010,14.5,1111122 
COMPS,ioos:station:USF.COMPS:FHP:1,2011-11-12T02:00:00Z,28.1530,-82.8010,13.5,1111122 
COMPS,ioos:station:USF.COMPS:FHP:1,2011-11-12T03:00:00Z,28.1530,-82.8010,12.6,1111122 
COMPS,ioos:station:USF.COMPS:FHP:1,2011-11-12T04:00:00Z,28.1530,-82.8010,12.2,1111122 
COMPS,ioos:station:USF.COMPS:FHP:1,2011-11-12T05:00:00Z,28.1530,-82.8010,11.6,1111122 
COMPS,ioos:station:USF.COMPS:FHP:1,2011-11-12T07:00:00Z,28.1530,-82.8010,10.8,1111122 
COMPS,ioos:station:USF.COMPS:FHP:1,2011-11-12T08:00:00Z,28.1530,-82.8010,10.9,1111122 
COMPS,ioos:station:USF.COMPS:FHP:1,2011-11-12T09:00:00Z,28.1530,-82.8010,10.7,1111122 
COMPS,ioos:station:USF.COMPS:FHP:1,2011-11-12T10:00:00Z,28.1530,-82.8010,10.6,1111122 
COMPS,ioos:station:USF.COMPS:FHP:1,2011-11-12T11:00:00Z,28.1530,-82.8010,10.5,1111122 
COMPS,ioos:station:USF.COMPS:FHP:1,2011-11-12T12:00:00Z,28.1530,-82.8010,10.9,1111122 
COMPS,ioos:station:USF.COMPS:FHP:1,2011-11-12T13:00:00Z,28.1530,-82.8010,11.2,1111122 
COMPS,ioos:station:USF.COMPS:FHP:1,2011-11-12T14:00:00Z,28.1530,-82.8010,13.8,1111122 
COMPS,ioos:station:USF.COMPS:FHP:1,2011-11-12T15:00:00Z,28.1530,-82.8010,16.4,1111122 
COMPS,ioos:station:USF.COMPS:FHP:1,2011-11-12T16:00:00Z,28.1530,-82.8010,19.0,1111122 
COMPS,ioos:station:USF.COMPS:FHP:1,2011-11-12T17:00:00Z,28.1530,-82.8010,20.4,1111122 
COMPS,ioos:station:USF.COMPS:FHP:1,2011-11-12T18:00:00Z,28.1530,-82.8010,21.8,1111122 
COMPS,ioos:station:USF.COMPS:FHP:1,2011-11-12T19:00:00Z,28.1530,-82.8010,22.3,1111122 
COMPS,ioos:station:USF.COMPS:FHP:1,2011-11-12T20:00:00Z,28.1530,-82.8010,23.7,1111122 
COMPS,ioos:station:USF.COMPS:FHP:1,2011-11-12T21:00:00Z,28.1530,-82.8010,19.2,1111122 
COMPS,ioos:station:USF.COMPS:FHP:1,2011-11-12T22:00:00Z,28.1530,-82.8010,19.0,1111122 
COMPS,ioos:station:USF.COMPS:FHP:1,2011-11-12T23:00:00Z,28.1530,-82.8010,18.6,1111122 
COMPS,ioos:station:USF.COMPS:FHP:1,2011-11-13T00:00:00Z,28.1530,-82.8010,18.3,1111122 
COMPS,ioos:station:USF.COMPS:FHP:1,2011-11-13T01:00:00Z,28.1530,-82.8010,17.4,1111122 
COMPS,ioos:station:USF.COMPS:FHP:1,2011-11-13T02:00:00Z,28.1530,-82.8010,17.6,1111122 
COMPS,ioos:station:USF.COMPS:FHP:1,2011-11-13T03:00:00Z,28.1530,-82.8010,17.2,1111122 
COMPS,ioos:station:USF.COMPS:FHP:1,2011-11-13T04:00:00Z,28.1530,-82.8010,17.9,1111122 
COMPS,ioos:station:USF.COMPS:FHP:1,2011-11-13T05:00:00Z,28.1530,-82.8010,17.0,1111122 
COMPS,ioos:station:USF.COMPS:FHP:1,2011-11-13T06:00:00Z,28.1530,-82.8010,17.0,1111122 
COMPS,ioos:station:USF.COMPS:FHP:1,2011-11-13T07:00:00Z,28.1530,-82.8010,15.9,1111122 
COMPS,ioos:station:USF.COMPS:FHP:1,2011-11-13T08:00:00Z,28.1530,-82.8010,15.2,1111122 
COMPS,ioos:station:USF.COMPS:FHP:1,2011-11-13T09:00:00Z,28.1530,-82.8010,14.7,1111122 
COMPS,ioos:station:USF.COMPS:FHP:1,2011-11-13T10:00:00Z,28.1530,-82.8010,14.4,1111122 
COMPS,ioos:station:USF.COMPS:FHP:1,2011-11-13T11:00:00Z,28.1530,-82.8010,14.4,1111122 
COMPS,ioos:station:USF.COMPS:FHP:1,2011-11-13T12:00:00Z,28.1530,-82.8010,14.2,1111122 
COMPS,ioos:station:USF.COMPS:FHP:1,2011-11-13T13:00:00Z,28.1530,-82.8010,14.6,1111122 
COMPS,ioos:station:USF.COMPS:FHP:1,2011-11-13T14:00:00Z,28.1530,-82.8010,17.9,1111122 
COMPS,ioos:station:USF.COMPS:FHP:1,2011-11-13T15:00:00Z,28.1530,-82.8010,20.4,1111122 
COMPS,ioos:station:USF.COMPS:FHP:1,2011-11-13T16:00:00Z,28.1530,-82.8010,22.1,1111122 
COMPS,ioos:station:USF.COMPS:FHP:1,2011-11-13T17:00:00Z,28.1530,-82.8010,22.6,1111122 
COMPS,ioos:station:USF.COMPS:FHP:1,2011-11-13T18:00:00Z,28.1530,-82.8010,22.1,1111122 
COMPS,ioos:station:USF.COMPS:FHP:1,2011-11-13T19:00:00Z,28.1530,-82.8010,22.8,1111122 
COMPS,ioos:station:USF.COMPS:FHP:1,2011-11-13T20:00:00Z,28.1530,-82.8010,22.9,1111122 
COMPS,ioos:station:USF.COMPS:FHP:1,2011-11-13T21:00:00Z,28.1530,-82.8010,20.4,1111122 
COMPS,ioos:station:USF.COMPS:FHP:1,2011-11-13T22:00:00Z,28.1530,-82.8010,20.7,1111122 
COMPS,ioos:station:USF.COMPS:FHP:1,2011-11-13T23:00:00Z,28.1530,-82.8010,19.9,1111122 
COMPS,ioos:station:USF.COMPS:FHP:1,2011-11-14T00:00:00Z,28.1530,-82.8010,20.1,1111122 
COMPS,ioos:station:USF.COMPS:FHP:1,2011-11-14T01:00:00Z,28.1530,-82.8010,19.6,1111122 
COMPS,ioos:station:USF.COMPS:FHP:1,2011-11-14T02:00:00Z,28.1530,-82.8010,19.9,1111122 
COMPS,ioos:station:USF.COMPS:FHP:1,2011-11-14T03:00:00Z,28.1530,-82.8010,18.7,1111122 
COMPS,ioos:station:USF.COMPS:FHP:1,2011-11-14T04:00:00Z,28.1530,-82.8010,18.5,1111122 
COMPS,ioos:station:USF.COMPS:FHP:1,2011-11-14T05:00:00Z,28.1530,-82.8010,18.3,1111122 
COMPS,ioos:station:USF.COMPS:FHP:1,2011-11-14T06:00:00Z,28.1530,-82.8010,18.6,1111122 
COMPS,ioos:station:USF.COMPS:FHP:1,2011-11-14T07:00:00Z,28.1530,-82.8010,18.5,1111122 
COMPS,ioos:station:USF.COMPS:FHP:1,2011-11-14T08:00:00Z,28.1530,-82.8010,17.8,1111122 
COMPS,ioos:station:USF.COMPS:FHP:1,2011-11-14T09:00:00Z,28.1530,-82.8010,17.4,1111122 
COMPS,ioos:station:USF.COMPS:FHP:1,2011-11-14T10:00:00Z,28.1530,-82.8010,17.2,1111122 
COMPS,ioos:station:USF.COMPS:FHP:1,2011-11-14T11:00:00Z,28.1530,-82.8010,17.1,1111122 
COMPS,ioos:station:USF.COMPS:FHP:1,2011-11-14T12:00:00Z,28.1530,-82.8010,16.7,1111122 
COMPS,ioos:station:USF.COMPS:FHP:1,2011-11-14T13:00:00Z,28.1530,-82.8010,18.2,1111122 
COMPS,ioos:station:USF.COMPS:FHP:1,2011-11-14T14:00:00Z,28.1530,-82.8010,20.8,1111122 
COMPS,ioos:station:USF.COMPS:FHP:1,2011-11-14T15:00:00Z,28.1530,-82.8010,22.2,1111122 
COMPS,ioos:station:USF.COMPS:FHP:1,2011-11-14T16:00:00Z,28.1530,-82.8010,24.1,1111122 
COMPS,ioos:station:USF.COMPS:FHP:1,2011-11-14T17:00:00Z,28.1530,-82.8010,24.0,1111122 
COMPS,ioos:station:USF.COMPS:FHP:1,2011-11-14T18:00:00Z,28.1530,-82.8010,21.4,1111122 
COMPS,ioos:station:USF.COMPS:FHP:1,2011-11-14T19:00:00Z,28.1530,-82.8010,22.0,1111122 
COMPS,ioos:station:USF.COMPS:FHP:1,2011-11-14T20:00:00Z,28.1530,-82.8010,21.7,1111122 
COMPS,ioos:station:USF.COMPS:FHP:1,2011-11-14T21:00:00Z,28.1530,-82.8010,22.1,1111122 
COMPS,ioos:station:USF.COMPS:FHP:1,2011-11-14T22:00:00Z,28.1530,-82.8010,22.2,1111122 
COMPS,ioos:station:USF.COMPS:FHP:1,2011-11-14T23:00:00Z,28.1530,-82.8010,21.8,1111122 
COMPS,ioos:station:USF.COMPS:FHP:1,2011-11-15T00:00:00Z,28.1530,-82.8010,21.9,1111122 
COMPS,ioos:station:USF.COMPS:FHP:1,2011-11-15T01:00:00Z,28.1530,-82.8010,21.6,1111122 
COMPS,ioos:station:USF.COMPS:FHP:1,2011-11-15T02:00:00Z,28.1530,-82.8010,21.6,1111122 
COMPS,ioos:station:USF.COMPS:FHP:1,2011-11-15T03:00:00Z,28.1530,-82.8010,21.5,1111122 
COMPS,ioos:station:USF.COMPS:FHP:1,2011-11-15T04:00:00Z,28.1530,-82.8010,21.9,1111122 
COMPS,ioos:station:USF.COMPS:FHP:1,2011-11-15T05:00:00Z,28.1530,-82.8010,21.8,1111122 
COMPS,ioos:station:USF.COMPS:FHP:1,2011-11-15T06:00:00Z,28.1530,-82.8010,21.5,1111122 
COMPS,ioos:station:USF.COMPS:FHP:1,2011-11-15T07:00:00Z,28.1530,-82.8010,21.1,1111122 
COMPS,ioos:station:USF.COMPS:FHP:1,2011-11-15T08:00:00Z,28.1530,-82.8010,21.0,1111122 
COMPS,ioos:station:USF.COMPS:FHP:1,2011-11-15T09:00:00Z,28.1530,-82.8010,21.2,1111122 
COMPS,ioos:station:USF.COMPS:FHP:1,2011-11-15T10:00:00Z,28.1530,-82.8010,21.5,1111122 
COMPS,ioos:station:USF.COMPS:FHP:1,2011-11-15T11:00:00Z,28.1530,-82.8010,21.7,1111122 
COMPS,ioos:station:USF.COMPS:FHP:1,2011-11-15T12:00:00Z,28.1530,-82.8010,21.5,1111122 
COMPS,ioos:station:USF.COMPS:FHP:1,2011-11-15T13:00:00Z,28.1530,-82.8010,21.9,1111122 
COMPS,ioos:station:USF.COMPS:FHP:1,2011-11-15T14:00:00Z,28.1530,-82.8010,22.1,1111122 
COMPS,ioos:station:USF.COMPS:FHP:1,2011-11-15T15:00:00Z,28.1530,-82.8010,23.6,1111122 
COMPS,ioos:station:USF.COMPS:FHP:1,2011-11-15T16:00:00Z,28.1530,-82.8010,23.4,1111122 
COMPS,ioos:station:USF.COMPS:FHP:1,2011-11-15T17:00:00Z,28.1530,-82.8010,23.4,1111122 
COMPS,ioos:station:USF.COMPS:FHP:1,2011-11-15T18:00:00Z,28.1530,-82.8010,22.7,1111122 
COMPS,ioos:station:USF.COMPS:FHP:1,2011-11-15T19:00:00Z,28.1530,-82.8010,22.6,1111122 
COMPS,ioos:station:USF.COMPS:FHP:1,2011-11-15T20:00:00Z,28.1530,-82.8010,23.1,1111122 
COMPS,ioos:station:USF.COMPS:FHP:1,2011-11-15T21:00:00Z,28.1530,-82.8010,23.2,1111122 
COMPS,ioos:station:USF.COMPS:FHP:1,2011-11-15T22:00:00Z,28.1530,-82.8010,22.3,1111122 
COMPS,ioos:station:USF.COMPS:FHP:1,2011-11-15T23:00:00Z,28.1530,-82.8010,22.7,1111122 
COMPS,ioos:station:USF.COMPS:FHP:1,2011-11-16T00:00:00Z,28.1530,-82.8010,23.2,1111122 
COMPS,ioos:station:USF.COMPS:FHP:1,2011-11-16T01:00:00Z,28.1530,-82.8010,22.4,1111122 
COMPS,ioos:station:USF.COMPS:FHP:1,2011-11-16T02:00:00Z,28.1530,-82.8010,23.0,1111122 
COMPS,ioos:station:USF.COMPS:FHP:1,2011-11-16T03:00:00Z,28.1530,-82.8010,23.2,1111122 
COMPS,ioos:station:USF.COMPS:FHP:1,2011-11-16T06:00:00Z,28.1530,-82.8010,22.9,1111122 
COMPS,ioos:station:USF.COMPS:FHP:1,2011-11-16T07:00:00Z,28.1530,-82.8010,23.1,1111122 
COMPS,ioos:station:USF.COMPS:FHP:1,2011-11-16T08:00:00Z,28.1530,-82.8010,23.4,1111122 
COMPS,ioos:station:USF.COMPS:FHP:1,2011-11-16T09:00:00Z,28.1530,-82.8010,22.8,1111122 
COMPS,ioos:station:USF.COMPS:FHP:1,2011-11-16T10:00:00Z,28.1530,-82.8010,23.1,1111122 
COMPS,ioos:station:USF.COMPS:FHP:1,2011-11-16T11:00:00Z,28.1530,-82.8010,23.3,1111122 
COMPS,ioos:station:USF.COMPS:FHP:1,2011-11-16T12:00:00Z,28.1530,-82.8010,23.3,1111122 
COMPS,ioos:station:USF.COMPS:FHP:1,2011-11-16T13:00:00Z,28.1530,-82.8010,22.9,1111122 
COMPS,ioos:station:USF.COMPS:FHP:1,2011-11-16T14:00:00Z,28.1530,-82.8010,22.3,1111122 
COMPS,ioos:station:USF.COMPS:FHP:1,2011-11-16T15:00:00Z,28.1530,-82.8010,23.7,1111122 
COMPS,ioos:station:USF.COMPS:FHP:1,2011-11-16T16:00:00Z,28.1530,-82.8010,24.7,1111122 
COMPS,ioos:station:USF.COMPS:FHP:1,2011-11-16T21:00:00Z,28.1530,-82.8010,24.9,1111122 
COMPS,ioos:station:USF.COMPS:FHP:1,2011-11-16T22:00:00Z,28.1530,-82.8010,24.4,1111122 
COMPS,ioos:station:USF.COMPS:FHP:1,2011-11-16T23:00:00Z,28.1530,-82.8010,24.4,1111122 
COMPS,ioos:station:USF.COMPS:FHP:1,2011-11-17T00:00:00Z,28.1530,-82.8010,24.3,1111122 
COMPS,ioos:station:USF.COMPS:FHP:1,2011-11-17T01:00:00Z,28.1530,-82.8010,24.0,1111122 
COMPS,ioos:station:USF.COMPS:FHP:1,2011-11-17T02:00:00Z,28.1530,-82.8010,24.0,1111122 
COMPS,ioos:station:USF.COMPS:FHP:1,2011-11-17T03:00:00Z,28.1530,-82.8010,23.4,1111122 
COMPS,ioos:station:USF.COMPS:FHP:1,2011-11-17T04:00:00Z,28.1530,-82.8010,23.6,1111122 
COMPS,ioos:station:USF.COMPS:FHP:1,2011-11-17T05:00:00Z,28.1530,-82.8010,23.5,1111122 
COMPS,ioos:station:USF.COMPS:FHP:1,2011-11-17T06:00:00Z,28.1530,-82.8010,22.9,1111122 
COMPS,ioos:station:USF.COMPS:FHP:1,2011-11-17T07:00:00Z,28.1530,-82.8010,23.0,1111122 
COMPS,ioos:station:USF.COMPS:FHP:1,2011-11-17T08:00:00Z,28.1530,-82.8010,23.2,1111122 
COMPS,ioos:station:USF.COMPS:FHP:1,2011-11-17T09:00:00Z,28.1530,-82.8010,23.2,1111122 
COMPS,ioos:station:USF.COMPS:FHP:1,2011-11-17T10:00:00Z,28.1530,-82.8010,23.2,1111122 
COMPS,ioos:station:USF.COMPS:FHP:1,2011-11-17T11:00:00Z,28.1530,-82.8010,23.4,1111122 